Location: Newark
(21.1200°N, 73.4000°E)
Time: 23:43:09
(UTC+00:00)

Transit 4A - All Passes

Search period start: 26 January 2020 00:00
Search period end: 05 February 2020 00:00
Orbit: 872 x 973 km, 66.8° (Epoch: 26 January)

Date Brightness Start Highest point End Pass type
(mag) Time Alt. Az. Time Alt. Az. Time Alt. Az.
26 Jan - 00:56:26 10° SW 01:02:26 56° WNW 01:08:18 10° NNE visible
26 Jan - 10:11:05 10° N 10:15:37 23° ENE 10:20:10 10° ESE daylight
26 Jan - 11:56:37 10° NW 12:01:50 34° WSW 12:07:07 10° S daylight
26 Jan - 23:21:00 10° SSE 23:25:45 23° ESE 23:30:23 10° NE visible
27 Jan - 01:06:19 10° SW 01:11:48 34° WNW 01:17:12 10° N visible
27 Jan - 10:19:39 10° N 10:25:02 37° ENE 10:30:28 10° SE daylight
27 Jan - 12:06:51 10° WNW 12:11:01 20° WSW 12:15:13 10° SSW daylight
27 Jan - 23:29:18 10° S 23:34:56 39° ESE 23:40:28 10° NE visible
28 Jan - 01:16:43 10° WSW 01:21:14 21° WNW 01:25:42 10° NNW visible
28 Jan - 10:28:36 10° NNW 10:34:23 62° ENE 10:40:15 10° SSE daylight
28 Jan - 12:18:33 10° W 12:20:10 11° WSW 12:21:48 10° WSW daylight
28 Jan - 23:38:07 10° S 23:44:11 65° ESE 23:50:07 10° NNE visible
29 Jan - 01:28:10 10° W 01:30:46 13° WNW 01:33:21 10° NNW daylight
29 Jan - 10:37:49 10° NNW 10:43:40 80° WSW 10:49:38 10° SSE daylight
29 Jan - 23:47:19 10° SSW 23:53:28 78° WNW 23:59:27 10° NNE visible
30 Jan - 09:02:52 10° NNE 09:06:31 17° ENE 09:10:11 10° E daylight
30 Jan - 10:47:21 10° NW 10:52:55 47° WSW 10:58:36 10° S daylight
30 Jan - 22:13:10 10° SE 22:16:52 17° ESE 22:20:31 10° ENE visible
30 Jan - 23:56:57 10° SW 00:02:47 47° WNW 00:08:31 10° N visible
31 Jan - 09:11:06 10° N 09:16:00 27° ENE 09:20:58 10° ESE daylight
31 Jan - 10:57:13 10° NW 11:02:08 28° WSW 11:07:08 10° SSW daylight
31 Jan - 22:20:56 10° SSE 22:26:03 28° ESE 22:31:04 10° NE visible
01 Feb - 00:07:00 10° WSW 00:12:11 29° WNW 00:17:17 10° N visible
01 Feb - 09:19:49 10° N 09:25:23 45° ENE 09:31:03 10° SE daylight
01 Feb - 11:07:45 10° WNW 11:11:19 17° WSW 11:14:55 10° SW daylight
01 Feb - 22:29:26 10° S 22:35:16 47° ESE 22:40:58 10° NE visible
02 Feb - 00:17:41 10° WSW 00:21:39 18° WNW 00:25:35 10° NNW visible
02 Feb - 09:28:52 10° NNW 09:34:44 75° ENE 09:40:41 10° SSE daylight
02 Feb - 22:38:24 10° SSW 22:44:31 78° ESE 22:50:29 10° NNE visible
03 Feb - 00:30:21 10° WNW 00:31:13 10° WNW 00:32:05 10° NW visible
03 Feb - 07:55:17 10° NE 07:57:24 12° ENE 07:59:31 10° E daylight
03 Feb - 09:38:12 10° NNW 09:44:00 66° WSW 09:49:55 10° SSE daylight
03 Feb - 21:06:16 10° ESE 21:08:00 11° ESE 21:09:45 10° E night (unlit)
03 Feb - 22:47:45 10° SSW 22:53:49 65° WNW 22:59:44 10° NNE visible
04 Feb - 08:02:44 10° NNE 08:06:56 20° ENE 08:11:11 10° ESE daylight
04 Feb - 09:47:49 10° NW 09:53:14 39° WSW 09:58:45 10° S daylight
04 Feb - 21:12:51 10° SSE 21:17:10 20° ESE 21:21:25 10° ENE night (unlit)
04 Feb - 22:57:31 10° SW 23:03:10 39° WNW 23:08:42 10° N visible
